• In Kazakhstan
  • List of Countries
  • For 7 days
  • Water Temperature
  • Weather Map
  • News
  • Weather Widgets
  • user-avatar
    Login

    Hourly Weather Manduria

    Today, 15 November, Friday

    Time Temperature Precipitation Wind Pressure Humidity
    00:00 +14°C° 0 mm 4 mps 750 mmHg 79%
    01:00 +14°C° 0 mm 5 mps 750 mmHg 81%
    02:00 +14°C° 0 mm 5 mps 750 mmHg 82%
    03:00 +14°C° 0 mm 5 mps 750 mmHg 84%
    04:00 +14°C° 0 mm 5 mps 750 mmHg 86%
    05:00 +14°C° 0 mm 5 mps 750 mmHg 86%
    06:00 +14°C° 0 mm 5 mps 750 mmHg 86%
    07:00 +14°C° 0 mm 5 mps 751 mmHg 87%
    08:00 +16°C° 0 mm 7 mps 751 mmHg 81%
    09:00 +17°C° 0 mm 8 mps 751 mmHg 76%
    10:00 +18°C° 0 mm 9 mps 752 mmHg 70%
    11:00 +18°C° 0 mm 10 mps 752 mmHg 69%
    12:00 +19°C° 0 mm 10 mps 752 mmHg 68%
    13:00 +19°C° 0 mm 11 mps 752 mmHg 67%
    14:00 +19°C° 0 mm 11 mps 752 mmHg 69%
    15:00 +18°C° 0 mm 11 mps 752 mmHg 71%
    16:00 +18°C° 0 mm 10 mps 752 mmHg 73%
    17:00 +18°C° 0 mm 10 mps 752 mmHg 73%
    18:00 +18°C° 0 mm 10 mps 752 mmHg 74%
    19:00 +18°C° 0 mm 10 mps 753 mmHg 75%
    20:00 +18°C° 0 mm 10 mps 753 mmHg 75%
    21:00 +18°C° 0 mm 10 mps 753 mmHg 74%
    22:00 +18°C° 0 mm 10 mps 753 mmHg 74%
    23:00 +17°C° 0 mm 10 mps 753 mmHg 75%

    Tomorrow, 16 November, Saturday

    Time Temperature Precipitation Wind Pressure Humidity
    00:00 +17°C° 0 mm 9 mps 754 mmHg 75%
    01:00 +17°C° 0 mm 9 mps 754 mmHg 76%
    02:00 +17°C° 0 mm 9 mps 754 mmHg 77%
    03:00 +17°C° 0 mm 8 mps 754 mmHg 78%
    04:00 +17°C° 0 mm 8 mps 753 mmHg 79%
    05:00 +17°C° 0 mm 8 mps 754 mmHg 79%
    06:00 +17°C° 0 mm 8 mps 754 mmHg 79%
    07:00 +17°C° 0 mm 8 mps 754 mmHg 79%
    08:00 +18°C° 0 mm 9 mps 754 mmHg 75%
    09:00 +19°C° 0 mm 9 mps 754 mmHg 70%
    10:00 +19°C° 0 mm 10 mps 754 mmHg 66%
    11:00 +21°C° 0 mm 10 mps 754 mmHg 65%
    12:00 +21°C° 0 mm 10 mps 753 mmHg 65%
    13:00 +21°C° 0 mm 10 mps 753 mmHg 64%
    14:00 +19°C° 0 mm 10 mps 753 mmHg 67%
    15:00 +19°C° 0 mm 10 mps 753 mmHg 69%
    16:00 +18°C° 0 mm 10 mps 752 mmHg 72%
    17:00 +18°C° 0 mm 10 mps 752 mmHg 74%
    18:00 +17°C° 0 mm 9 mps 752 mmHg 76%
    19:00 +17°C° 0 mm 9 mps 752 mmHg 78%
    20:00 +17°C° 0 mm 9 mps 752 mmHg 78%
    21:00 +17°C° 0 mm 9 mps 752 mmHg 78%
    22:00 +17°C° 0 mm 9 mps 752 mmHg 79%
    23:00 +17°C° 0 mm 9 mps 752 mmHg 79%

    Day after tomorrow, 17 November, Sunday

    Time Temperature Precipitation Wind Pressure Humidity
    00:00 +17°C° 0 mm 10 mps 751 mmHg 79%
    01:00 +17°C° 0 mm 10 mps 751 mmHg 79%
    02:00 +17°C° 0.1 mm 10 mps 751 mmHg 79%
    03:00 +17°C° 0.1 mm 10 mps 750 mmHg 79%
    04:00 +17°C° 0.1 mm 11 mps 750 mmHg 79%
    05:00 +17°C° 0.1 mm 11 mps 750 mmHg 78%
    06:00 +17°C° 0.1 mm 11 mps 750 mmHg 78%
    07:00 +17°C° 0.1 mm 11 mps 750 mmHg 77%
    08:00 +18°C° 0.1 mm 12 mps 750 mmHg 74%
    09:00 +19°C° 0.1 mm 12 mps 750 mmHg 71%
    10:00 +20°C° 0.1 mm 13 mps 750 mmHg 67%
    11:00 +20°C° 0.1 mm 13 mps 750 mmHg 67%
    12:00 +20°C° 0.1 mm 13 mps 750 mmHg 67%
    13:00 +20°C° 0.1 mm 13 mps 750 mmHg 66%
    14:00 +21°C° 0.4 mm 12 mps 749 mmHg 69%
    15:00 +19°C° 0.4 mm 12 mps 749 mmHg 71%
    16:00 +18°C° 0.4 mm 12 mps 749 mmHg 74%
    17:00 +18°C° 1.8 mm 11 mps 749 mmHg 76%
    18:00 +18°C° 1.8 mm 10 mps 749 mmHg 78%
    19:00 +17°C° 1.8 mm 9 mps 749 mmHg 80%
    20:00 +16°C° 1.4 mm 8 mps 749 mmHg 78%
    21:00 +15°C° 1.4 mm 6 mps 749 mmHg 76%
    22:00 +14°C° 1.4 mm 4 mps 749 mmHg 74%
    23:00 +14°C° 0 mm 5 mps 750 mmHg 73%

    18 November, Monday

    Time Temperature Precipitation Wind Pressure Humidity
    00:00 +14°C° 0 mm 5 mps 750 mmHg 72%
    01:00 +14°C° 0 mm 5 mps 751 mmHg 71%
    02:00 +13°C° 0 mm 4 mps 751 mmHg 72%
    03:00 +13°C° 0 mm 3 mps 752 mmHg 72%
    04:00 +13°C° 0 mm 2 mps 752 mmHg 72%
    05:00 +13°C° 0 mm 2 mps 752 mmHg 70%
    06:00 +13°C° 0 mm 2 mps 753 mmHg 69%
    07:00 +13°C° 0 mm 2 mps 753 mmHg 67%
    08:00 +14°C° 0 mm 3 mps 753 mmHg 65%
    09:00 +15°C° 0 mm 4 mps 754 mmHg 63%
    10:00 +16°C° 0 mm 5 mps 754 mmHg 61%
    11:00 +17°C° 0 mm 5 mps 754 mmHg 59%
    12:00 +17°C° 0 mm 5 mps 754 mmHg 58%
    13:00 +18°C° 0 mm 4 mps 754 mmHg 56%
    14:00 +18°C° 0 mm 4 mps 754 mmHg 59%
    15:00 +17°C° 0 mm 4 mps 754 mmHg 62%
    16:00 +17°C° 0 mm 4 mps 754 mmHg 65%
    17:00 +15°C° 0 mm 5 mps 754 mmHg 68%
    18:00 +15°C° 0 mm 5 mps 754 mmHg 71%
    19:00 +14°C° 0 mm 5 mps 754 mmHg 75%
    20:00 +14°C° 0 mm 6 mps 754 mmHg 75%
    21:00 +14°C° 0 mm 6 mps 754 mmHg 75%
    22:00 +14°C° 0 mm 7 mps 754 mmHg 75%
    23:00 +14°C° 0 mm 7 mps 754 mmHg 75%

    19 November, Tuesday

    Time Temperature Precipitation Wind Pressure Humidity
    00:00 +14°C° 0 mm 7 mps 754 mmHg 76%
    01:00 +14°C° 0 mm 7 mps 754 mmHg 76%
    02:00 +14°C° 0.1 mm 6 mps 754 mmHg 77%
    03:00 +14°C° 0.1 mm 6 mps 754 mmHg 77%
    04:00 +14°C° 0.1 mm 5 mps 754 mmHg 77%
    05:00 +14°C° 0.2 mm 5 mps 754 mmHg 76%
    06:00 +14°C° 0.2 mm 4 mps 754 mmHg 76%
    07:00 +14°C° 0.2 mm 4 mps 754 mmHg 76%
    08:00 +15°C° 0 mm 4 mps 755 mmHg 71%
    09:00 +17°C° 0 mm 3 mps 755 mmHg 66%
    10:00 +18°C° 0 mm 3 mps 755 mmHg 61%
    11:00 +18°C° 0 mm 3 mps 755 mmHg 59%
    12:00 +18°C° 0 mm 3 mps 755 mmHg 57%
    13:00 +18°C° 0 mm 4 mps 754 mmHg 56%
    14:00 +18°C° 0 mm 3 mps 754 mmHg 59%
    15:00 +17°C° 0 mm 3 mps 754 mmHg 62%
    16:00 +17°C° 0 mm 3 mps 754 mmHg 66%
    17:00 +16°C° 0.1 mm 3 mps 754 mmHg 67%
    18:00 +16°C° 0.1 mm 2 mps 754 mmHg 69%
    19:00 +16°C° 0.1 mm 2 mps 754 mmHg 70%
    20:00 +15°C° 0.1 mm 2 mps 754 mmHg 72%
    21:00 +15°C° 0.1 mm 2 mps 755 mmHg 74%
    22:00 +15°C° 0.1 mm 2 mps 755 mmHg 76%
    23:00 +15°C° 0.3 mm 2 mps 755 mmHg 75%

    20 November, Wednesday

    Time Temperature Precipitation Wind Pressure Humidity
    00:00 +13°C° 0.3 mm 3 mps 755 mmHg 75%
    01:00 +13°C° 0.3 mm 3 mps 755 mmHg 74%
    02:00 +13°C° 0.1 mm 3 mps 755 mmHg 75%
    03:00 +13°C° 0.1 mm 4 mps 755 mmHg 76%
    04:00 +12°C° 0.1 mm 4 mps 755 mmHg 76%
    05:00 +12°C° 0 mm 4 mps 755 mmHg 77%
    06:00 +12°C° 0 mm 4 mps 755 mmHg 78%
    07:00 +11°C° 0 mm 4 mps 755 mmHg 79%
    08:00 +13°C° 0 mm 4 mps 756 mmHg 75%
    09:00 +14°C° 0 mm 4 mps 756 mmHg 71%
    10:00 +15°C° 0 mm 4 mps 756 mmHg 67%
    11:00 +17°C° 0 mm 4 mps 756 mmHg 64%
    12:00 +17°C° 0 mm 4 mps 756 mmHg 61%
    13:00 +18°C° 0 mm 4 mps 756 mmHg 59%
    14:00 +17°C° 0 mm 4 mps 756 mmHg 63%
    15:00 +15°C° 0 mm 4 mps 756 mmHg 67%
    16:00 +15°C° 0 mm 4 mps 756 mmHg 71%
    17:00 +14°C° 0 mm 4 mps 756 mmHg 74%
    18:00 +13°C° 0 mm 4 mps 756 mmHg 76%
    19:00 +13°C° 0 mm 4 mps 757 mmHg 79%
    20:00 +13°C° 0 mm 4 mps 757 mmHg 80%
    21:00 +12°C° 0 mm 3 mps 757 mmHg 81%
    22:00 +12°C° 0 mm 3 mps 757 mmHg 82%
    23:00 +12°C° 0 mm 3 mps 757 mmHg 82%
    Show more